• In Kazakhstan
  • List of Countries
  • For 7 days
  • Water Temperature
  • Satellite Maps
  • Weather Map
  • News
  • Weather Widgets
  • user-avatar
    Login

    Hourly Weather Bridgetown

    Today, 20 June, Thursday

    Time Temperature Precipitation Wind Pressure Humidity
    00:00 +29°C° 0.1 mm 9 mps 762 mmHg 85%
    01:00 +29°C° 0.1 mm 9 mps 761 mmHg 84%
    02:00 +29°C° 0.1 mm 9 mps 761 mmHg 83%
    03:00 +29°C° 0 mm 9 mps 761 mmHg 82%
    04:00 +29°C° 0 mm 9 mps 761 mmHg 81%
    05:00 +28°C° 0 mm 9 mps 761 mmHg 80%
    06:00 +29°C° 0 mm 9 mps 762 mmHg 78%
    07:00 +29°C° 0 mm 9 mps 762 mmHg 76%
    08:00 +29°C° 0 mm 9 mps 763 mmHg 75%
    09:00 +31°C° 0 mm 9 mps 763 mmHg 73%
    10:00 +31°C° 0 mm 9 mps 763 mmHg 72%
    11:00 +31°C° 0 mm 9 mps 763 mmHg 71%
    12:00 +31°C° 0 mm 9 mps 763 mmHg 71%
    13:00 +31°C° 0 mm 9 mps 763 mmHg 71%
    14:00 +31°C° 0 mm 9 mps 762 mmHg 71%
    15:00 +31°C° 0 mm 9 mps 762 mmHg 72%
    16:00 +31°C° 0 mm 9 mps 762 mmHg 73%
    17:00 +29°C° 0 mm 9 mps 762 mmHg 74%
    18:00 +29°C° 0 mm 9 mps 762 mmHg 74%
    19:00 +29°C° 0 mm 9 mps 762 mmHg 75%
    20:00 +29°C° 0 mm 9 mps 763 mmHg 75%
    21:00 +29°C° 0 mm 9 mps 763 mmHg 75%
    22:00 +29°C° 0 mm 9 mps 763 mmHg 74%
    23:00 +29°C° 0 mm 10 mps 764 mmHg 74%

    Tomorrow, 21 June, Friday

    Time Temperature Precipitation Wind Pressure Humidity
    00:00 +29°C° 0 mm 9 mps 763 mmHg 74%
    01:00 +29°C° 0 mm 9 mps 763 mmHg 75%
    02:00 +29°C° 0 mm 9 mps 762 mmHg 75%
    03:00 +29°C° 0 mm 9 mps 762 mmHg 76%
    04:00 +29°C° 0 mm 9 mps 762 mmHg 77%
    05:00 +29°C° 0 mm 9 mps 762 mmHg 78%
    06:00 +29°C° 0 mm 9 mps 763 mmHg 77%
    07:00 +29°C° 0 mm 9 mps 763 mmHg 76%
    08:00 +29°C° 0 mm 9 mps 763 mmHg 75%
    09:00 +31°C° 0.1 mm 9 mps 763 mmHg 74%
    10:00 +31°C° 0.1 mm 9 mps 764 mmHg 73%
    11:00 +31°C° 0.1 mm 8 mps 764 mmHg 73%
    12:00 +31°C° 0 mm 8 mps 763 mmHg 73%
    13:00 +31°C° 0 mm 9 mps 763 mmHg 74%
    14:00 +31°C° 0 mm 9 mps 763 mmHg 74%
    15:00 +31°C° 0 mm 9 mps 762 mmHg 74%
    16:00 +31°C° 0 mm 9 mps 762 mmHg 75%
    17:00 +31°C° 0 mm 9 mps 762 mmHg 75%
    18:00 +29°C° 0 mm 9 mps 762 mmHg 76%
    19:00 +29°C° 0 mm 9 mps 762 mmHg 78%
    20:00 +29°C° 0 mm 9 mps 763 mmHg 80%
    21:00 +29°C° 0 mm 9 mps 763 mmHg 79%
    22:00 +29°C° 0 mm 9 mps 763 mmHg 79%
    23:00 +29°C° 0 mm 9 mps 764 mmHg 79%

    Day after tomorrow, 22 June, Saturday

    Time Temperature Precipitation Wind Pressure Humidity
    00:00 +29°C° 0.1 mm 8 mps 763 mmHg 78%
    01:00 +29°C° 0.1 mm 8 mps 763 mmHg 78%
    02:00 +29°C° 0.1 mm 8 mps 762 mmHg 78%
    03:00 +29°C° 0.1 mm 8 mps 762 mmHg 79%
    04:00 +29°C° 0.1 mm 8 mps 762 mmHg 79%
    05:00 +29°C° 0.1 mm 8 mps 762 mmHg 80%
    06:00 +29°C° 0.1 mm 8 mps 763 mmHg 77%
    07:00 +29°C° 0.1 mm 9 mps 763 mmHg 75%
    08:00 +31°C° 0.1 mm 9 mps 763 mmHg 73%
    09:00 +31°C° 0 mm 9 mps 763 mmHg 73%
    10:00 +31°C° 0 mm 9 mps 763 mmHg 73%
    11:00 +32°C° 0 mm 9 mps 763 mmHg 72%
    12:00 +32°C° 0.2 mm 9 mps 763 mmHg 72%
    13:00 +32°C° 0.2 mm 9 mps 762 mmHg 72%
    14:00 +32°C° 0.2 mm 9 mps 762 mmHg 71%
    15:00 +31°C° 0.1 mm 9 mps 762 mmHg 73%
    16:00 +31°C° 0.1 mm 9 mps 761 mmHg 74%
    17:00 +31°C° 0.1 mm 8 mps 761 mmHg 75%
    18:00 +29°C° 0.1 mm 8 mps 762 mmHg 77%
    19:00 +29°C° 0.1 mm 8 mps 762 mmHg 78%
    20:00 +29°C° 0.1 mm 8 mps 762 mmHg 79%
    21:00 +29°C° 0.2 mm 8 mps 763 mmHg 80%
    22:00 +29°C° 0.2 mm 8 mps 763 mmHg 80%
    23:00 +29°C° 0.2 mm 7 mps 763 mmHg 81%

    23 June, Sunday

    Time Temperature Precipitation Wind Pressure Humidity
    00:00 +29°C° 1 mm 7 mps 763 mmHg 81%
    01:00 +29°C° 1 mm 7 mps 762 mmHg 82%
    02:00 +29°C° 1 mm 7 mps 762 mmHg 82%
    03:00 +28°C° 2.5 mm 7 mps 761 mmHg 82%
    04:00 +28°C° 2.5 mm 7 mps 761 mmHg 82%
    05:00 +28°C° 2.5 mm 7 mps 761 mmHg 82%
    06:00 +28°C° 1.1 mm 7 mps 762 mmHg 84%
    07:00 +28°C° 1.1 mm 7 mps 762 mmHg 85%
    08:00 +28°C° 1.1 mm 7 mps 762 mmHg 86%
    09:00 +29°C° 0.3 mm 7 mps 762 mmHg 83%
    10:00 +31°C° 0.3 mm 8 mps 762 mmHg 81%
    11:00 +32°C° 0.3 mm 8 mps 763 mmHg 78%
    12:00 +32°C° 0.1 mm 7 mps 762 mmHg 77%
    13:00 +32°C° 0.1 mm 7 mps 762 mmHg 77%
    14:00 +32°C° 0.1 mm 7 mps 761 mmHg 77%
    15:00 +30°C° 0.7 mm 7 mps 761 mmHg 78%
    16:00 +30°C° 0.7 mm 7 mps 761 mmHg 79%
    17:00 +30°C° 0.7 mm 7 mps 760 mmHg 80%
    18:00 +29°C° 1 mm 7 mps 761 mmHg 81%
    19:00 +29°C° 1 mm 7 mps 761 mmHg 82%
    20:00 +29°C° 1 mm 7 mps 761 mmHg 83%
    21:00 +29°C° 0 mm 8 mps 762 mmHg 82%
    22:00 +29°C° 0 mm 8 mps 762 mmHg 82%
    23:00 +29°C° 0 mm 8 mps 762 mmHg 82%

    24 June, Monday

    Time Temperature Precipitation Wind Pressure Humidity
    00:00 +29°C° 0 mm 8 mps 761 mmHg 82%
    01:00 +28°C° 0 mm 8 mps 761 mmHg 82%
    02:00 +28°C° 0 mm 8 mps 761 mmHg 82%
    03:00 +28°C° 0.1 mm 8 mps 761 mmHg 81%
    04:00 +28°C° 0.1 mm 8 mps 761 mmHg 80%
    05:00 +28°C° 0.1 mm 8 mps 761 mmHg 80%
    06:00 +28°C° 0 mm 8 mps 761 mmHg 78%
    07:00 +29°C° 0 mm 9 mps 761 mmHg 77%
    08:00 +29°C° 0 mm 9 mps 762 mmHg 75%
    09:00 +29°C° 0 mm 9 mps 762 mmHg 74%
    10:00 +31°C° 0 mm 9 mps 762 mmHg 72%
    11:00 +31°C° 0 mm 9 mps 761 mmHg 71%
    12:00 +31°C° 0 mm 9 mps 761 mmHg 71%
    13:00 +31°C° 0 mm 9 mps 761 mmHg 71%
    14:00 +31°C° 0 mm 8 mps 761 mmHg 71%
    15:00 +31°C° 0 mm 8 mps 760 mmHg 72%
    16:00 +29°C° 0 mm 8 mps 760 mmHg 73%
    17:00 +29°C° 0 mm 8 mps 760 mmHg 74%
    18:00 +29°C° 0 mm 8 mps 760 mmHg 74%
    19:00 +29°C° 0 mm 8 mps 761 mmHg 75%
    20:00 +28°C° 0 mm 8 mps 761 mmHg 76%
    21:00 +28°C° 0 mm 8 mps 761 mmHg 75%
    22:00 +29°C° 0 mm 8 mps 761 mmHg 74%
    23:00 +29°C° 0 mm 8 mps 762 mmHg 74%

    25 June, Tuesday

    Time Temperature Precipitation Wind Pressure Humidity
    00:00 +29°C° 0 mm 8 mps 761 mmHg 75%
    01:00 +28°C° 0 mm 8 mps 761 mmHg 76%
    02:00 +28°C° 0 mm 8 mps 760 mmHg 77%
    03:00 +28°C° 0 mm 8 mps 760 mmHg 76%
    04:00 +28°C° 0 mm 8 mps 760 mmHg 75%
    05:00 +29°C° 0 mm 8 mps 761 mmHg 74%
    06:00 +29°C° 0 mm 8 mps 761 mmHg 73%
    07:00 +29°C° 0 mm 8 mps 761 mmHg 72%
    08:00 +31°C° 0 mm 8 mps 761 mmHg 71%
    09:00 +31°C° 0 mm 8 mps 761 mmHg 70%
    10:00 +31°C° 0 mm 8 mps 761 mmHg 70%
    11:00 +31°C° 0 mm 8 mps 762 mmHg 70%
    12:00 +31°C° 0 mm 8 mps 761 mmHg 70%
    13:00 +31°C° 0 mm 8 mps 761 mmHg 69%
    14:00 +31°C° 0 mm 8 mps 760 mmHg 69%
    15:00 +31°C° 0 mm 8 mps 760 mmHg 70%
    16:00 +31°C° 0 mm 8 mps 760 mmHg 72%
    17:00 +29°C° 0 mm 8 mps 760 mmHg 73%
    18:00 +29°C° 0 mm 8 mps 760 mmHg 75%
    19:00 +29°C° 0 mm 8 mps 761 mmHg 77%
    20:00 +29°C° 0 mm 8 mps 761 mmHg 80%
    21:00 +29°C° 0.1 mm 8 mps 761 mmHg 78%
    22:00 +29°C° 0.1 mm 8 mps 761 mmHg 77%
    23:00 +29°C° 0.1 mm 8 mps 761 mmHg 75%
    Show more